Regional Weather Roundup
Issued by NWS

Home | Current Version | Previous Version | Text Only | Print | Product List | Glossary On
Versions: 1 2 3 4 5 6 7 8 9 10 11 12 13 14 15 16 17 18 19 20 21 22 23 24 25 26 27 28 29 30 31 32 33 34 35 36 37 38 39 40 41 42 43 44 45 46 47 48 49 50
000
ASUS42 KTBW 261210
RWRFL
FLORIDA REGIONAL WEATHER ROUNDUP
NATIONAL WEATHER SERVICE TAMPA BAY RUSKIN FL
700 AM EST MON JAN 26 2015

NOTE: "FAIR" INDICATES FEW OR NO CLOUDS BELOW 12,000 FEET WITH NO
SIGNIFICANT WEATHER AND/OR OBSTRUCTIONS TO VISIBILITY.


FLZ001>010-012>015-112-114-115-261300-
PANHANDLE FLORIDA

CITY           SKY/WX    TMP DP  RH WIND       PRES   REMARKS
PENSACOLA      CLEAR     45  35  68 NW10      29.97R WCI  40
PENSACOLA NAS  CLEAR     48  36  63 NW10G20   29.97R WCI  43
MILTON NAS     PTCLDY    43  35  73 W13       29.96R WCI  36
CRESTVIEW      PTCLDY    45  36  70 W9        29.95R WCI  40
VALPARAISO     CLEAR     46  36  68 NW10      29.94R WCI  40
MARY ESTHER    CLEAR     47  32  55 NW6       29.95R WCI  45
TRI COUNTY     FAIR      44  39  82 W3        29.92R
PANAMA CITY    FAIR      47  37  68 W7        29.92R WCI  44
TYNDALL AFB    CLEAR     51  39  65 NW15      29.93R
APALACHICOLA   CLEAR     51  41  68 NW7       29.91R

STATION/POSITION SKY/WX   TEMP    WIND        PRES    WAVE   SWELL
                          AIR SEA DIR/SP/G            HT/PER HT/PER
                          (F)     (DEG/KT/KT) (MB)    (FT/S) (FT/S)
30.1N   87.6W              54 62  310/ 23/ 29 1014.4R   5/ 7   3/ 7
29.2N   88.2W              57 70  320/ 23/ 29 1016.5R   7/ 8
28.7N   86.0W              63 70  300/ 21/ 27 1013.5R  12/ 8
PANAMA CITY BEAC           52 60  310/ 14/ 18 1012.5
CAPE SAN BLAS    NOT AVBL
TOWER C                    56     310/ 21/ 23 1012.6R
28.5N   84.5W              65 68  290/ 25/ 31 1011.9R  12/ 9   8/ 9

$$
FLZ011-016>038-118-127-128-134-139-239-261300-
NORTH FLORIDA

CITY           SKY/WX    TMP DP  RH WIND       PRES   REMARKS
MARIANNA       CLEAR     46  40  79 W7        29.90R WCI  42
TALLAHASSEE    CLEAR     49  41  74 W6        29.87R
PERRY          CLEAR     48  46  90 W8        29.87R WCI  45
CROSS CITY       N/A     51  48  89 NW8       29.86R
LAKE CITY      FAIR      48  46  93 W8        29.84R WCI  45
GAINESVILLE    CLEAR     52  50  93 W8        29.83R
MAYPORT NAS    PTCLDY    53  51  93 W6        29.79R
JACKSONVILLE   PTCLDY    49  49 100 W8        29.80R
JAX NAS        MOCLDY    54  50  86 W8        29.81R
JAX CRAIG      PTCLDY    54  52  93 W7        29.80S
JAX CECIL      CLEAR     50  50 100 SW6       29.81R
FERNANDINA BEA FAIR      55  54  94 W8        29.77S
ST AUGUSTINE   CLOUDY    54  52  93 W9        29.82R

STATION/POSITION SKY/WX   TEMP    WIND        PRES    WAVE   SWELL
                          AIR SEA DIR/SP/G            HT/PER HT/PER
                          (F)     (DEG/KT/KT) (MB)    (FT/S) (FT/S)
SHELL POINT      NOT AVBL
KEATON BEACH               54     310/ 15/ 19 1011.6R
CEDAR KEY                  59     310/ 10/ 16 1011.0R
FERNANDINA                 53 58  240/  9/ 11 1007.9
30.7N   81.3W                 58                N/A     3/ 5
MAYPORT                    54 58  240/ 10/ 13   N/A
31.4N   80.9W              54 55  250/ 16/ 19 1007.4F   4/ 5
ST AUGUSTINE               54     260/  8/ 10 1009.7R

$$
FLZ040-043>046-052-053-057-058-063-144-261300-
INTERIOR CENTRAL FLORIDA

CITY           SKY/WX    TMP DP  RH WIND       PRES   REMARKS
OCALA          CLEAR     54  48  82 W9        29.84R
THE VILLAGES     N/A     54  54 100 SW5       29.75R
LEESBURG       CLOUDY    55  52  89 W5        29.85R
SANFORD        LGT RAIN  57  54  89 SW9       29.84S
ORLANDO EXEC   LGT RAIN  57  56  96 W6        29.85F
ORLANDO INTL   LGT RAIN  57  56  96 SW3       29.86S
KISSIMMEE      CLOUDY    55  55 100 CALM      29.86
WINTER HAVEN   LGT RAIN  59  56  89 W9        29.87R
LAKELAND       CLOUDY    59  57  94 W7        29.88R
BARTOW         LGT RAIN  57  57 100 W9        29.89R
OKEECHOBEE     MOCLDY    57  54  88 S9        29.88S

$$
FLZ041-047-054-059-064-141-147-261300-
EAST CENTRAL FLORIDA

CITY           SKY/WX    TMP DP  RH WIND       PRES   REMARKS
ORMOND BEACH   CLOUDY    54  54 100 SW6       29.81
DAYTONA BEACH  CLOUDY    56  55  97 SW7       29.83S
DELAND         CLOUDY   N/A N/A N/A SW6       29.84R
NEW SMYRNA BEA LGT RAIN  54  54 100 W6        29.83
JFK SPACE CTR  CLOUDY    57  54  88 W13G23    29.84R
TITUSVILLE     LGT RAIN  55  54  94 W17       29.86
CAPE CANAVERAL CLOUDY    58  55  90 SW12      29.83S
PATRICK AFB    CLOUDY    59  55  88 W14       29.85R
MELBOURNE      HVY RAIN  58  54  86 W10       29.85R FOG
VERO BEACH     CLOUDY    57  53  86 S10       29.86F
FT PIERCE      CLOUDY    58  54  86 S10       29.86F
STUART         MOCLDY    55  52  88 S9        29.90F

STATION/POSITION SKY/WX   TEMP    WIND        PRES    WAVE   SWELL
                          AIR SEA DIR/SP/G            HT/PER HT/PER
                          (F)     (DEG/KT/KT) (MB)    (FT/S) (FT/S)
28.5N   80.2W              64 71  210/ 21/ 25 1009.7F
28.9N   78.5W              68 76  230/ 16/ 19 1009.5F   5/ 6   2/10
TRIDENT PIER               59 65  180/  8/ 12 1009.6
28.4N   80.5W                 63                N/A     3/ 4
27.6N   80.2W                 74                N/A     2/ 3

$$
FLZ050-056-061-142-242-148-248-149-249-151-251-155-255-
160-260-261300-
WEST CENTRAL FLORIDA

CITY           SKY/WX    TMP DP  RH WIND       PRES   REMARKS
CRYSTAL RIVER  FAIR      55  50  82 NW8       29.86R
INVERNESS      FAIR      52  52 100 CALM      29.86R FOG
BROOKSVILLE    MOCLDY    54  53  97 W6        29.88R
ZEPHYRHILLS    CLOUDY    55  54  94 CALM      29.88R
CLEARWATER     CLOUDY    60  57  89 W9        29.88R
TAMPA INTL     MOCLDY    60  56  86 NW3       29.88R
TAMPA EXEC     CLOUDY    61  57  88 CALM      29.88S
PLANT CITY       N/A    N/A N/A N/A MISG        N/A
MACDILL AFB    MOCLDY    59  59 100 W5        29.88R
PETER O KNIGHT CLOUDY    61  59  94 CALM      29.88R
ST PETERSBURG  CLOUDY    62  58  86 W7        29.87R
SARASOTA       LGT RAIN  61  58  90 NW12      29.88R
VENICE         CLOUDY    63  59  88 NW20G29   29.91R FOG

STATION/POSITION SKY/WX   TEMP    WIND        PRES    WAVE   SWELL
                          AIR SEA DIR/SP/G            HT/PER HT/PER
                          (F)     (DEG/KT/KT) (MB)    (FT/S) (FT/S)
CEDAR KEY                  59     310/ 10/ 16 1011.0R
28.5N   84.5W              65 68  290/ 25/ 31 1011.9R  12/ 9   8/ 9
27.3N   84.3W                 73                N/A    11/ 8   2/11
CLEARWATER BEACH           63 64  290/ 14/ 16 1011.0
MIDDLE TAMPA BAY           61     330/ 16/ 19 1011.7
VENICE                     62 65  310/ 22/ 24 1012.3R

$$
FLZ066-069-070-075>078-162-262-165-265-261300-
SOUTHWEST FLORIDA AND KEYS

CITY           SKY/WX    TMP DP  RH WIND       PRES   REMARKS
PUNTA GORDA    CLOUDY    64  60  87 W17G25    29.89R
FT MYERS       CLOUDY    65  60  84 W14       29.89R
SOUTHWEST INTL CLOUDY    65  59  81 SW13      29.90S
NAPLES         CLOUDY    69  60  73 SW16      29.91R
MARCO ISLAND   MOSUNNY   66  57  72 SW13G21   29.92R
IMMOKALEE      MOSUNNY  N/A N/A N/A CALM      29.91S
MARATHON       CLEAR     67  56  67 W7        29.99R
KEY WEST NAS   PTCLDY    67  57  70 W12       29.99S
KEY WEST INTL  CLEAR     67  58  72 W10       29.99S

STATION/POSITION SKY/WX   TEMP    WIND        PRES    WAVE   SWELL
                          AIR SEA DIR/SP/G            HT/PER HT/PER
                          (F)     (DEG/KT/KT) (MB)    (FT/S) (FT/S)
VENICE                     62 65  310/ 22/ 24 1012.3R
NAPLES                     69 75  250/ 15/ 17 1013.1
26.0N   85.6W              71 73  310/ 27/ 31 1014.1R   9/ 8
DRY TORTUGAS               70     260/ 18/ 20 1014.8R
NW FL BAY                  70     280/ 16/ 21 1014.9F
SAND KEY                   70     270/ 20/ 24 1015.5R
SOMBRERO KEY               69     270/ 19/ 22 1015.8R
LONG KEY                   68 69  270/ 17/ 19 1015.8S
MOLASSES REEF              68 75  250/ 16/ 18 1014.9R

$$
FLZ067-068-071>074-168-172>174-261300-
SOUTHEAST FLORIDA

CITY           SKY/WX    TMP DP  RH WIND       PRES   REMARKS
W PALM BEACH   MOCLDY    57  53  86 S9        29.91S
FT LAUDER-EXEC CLEAR     56  53  90 S8        29.93F
FT LAUDERDALE  PTCLDY    56  53  90 S8        29.94S
POMPANO BEACH  CLEAR     58  51  78 S7        29.94S
PEMBROKE PINES CLEAR     56  51  84 S7        29.96S
OPA LOCKA      CLEAR     56  52  86 S8        29.95S
MIAMI          PTCLDY    58  53  84 S9        29.95F
WEST KENDALL   PTCLDY    57  52  83 S9        29.95F
HOMESTEAD      MOCLDY    55  53  92 S6        29.96S

STATION/POSITION SKY/WX   TEMP    WIND        PRES    WAVE   SWELL
                          AIR SEA DIR/SP/G            HT/PER HT/PER
                          (F)     (DEG/KT/KT) (MB)    (FT/S) (FT/S)
PORT EVERGLADES            58     200/  5/  9 1013.8
VIRGINIA KEY               65 69  220/ 14/ 16 1014.5
LAKE WORTH                 58 74  200/  9/ 12 1012.9



USA.gov is the U.S. government's official web portal to all federal, state and local government web resources and services.